GW2280 Weather Reports


Display with metric or nautical units.
time (UTC)temp
F
wind
direction
speed
MPH
gust
MPH
rain 1hr
in
rain 24hr
in
rain mn
in
humidity
%
barometer
mb
20260508172011 55 259 15.0 27.0 0.00 0.00 0.00 34 1009.0
20260508171535 56 223 9.0 23.0 0.00 0.00 0.00 35 1008.9
20260508171022 56 259 10.0 23.0 0.00 0.00 0.00 34 1008.9
20260508170513 57 256 12.0 23.0 0.00 0.00 0.00 35 1008.9
20260508170030 57 254 10.0 23.0 0.00 0.00 0.00 33 1008.9
20260508165512 57 250 7.0 23.0 0.00 0.00 0.00 38 1008.9
20260508165013 57 324 10.0 22.0 0.00 0.00 0.00 34 1008.9
20260508164532 56 293 6.0 27.0 0.00 0.00 0.00 38 1008.9
20260508164012 56 258 14.0 27.0 0.00 0.00 0.00 35 1009.0
20260508163511 56 271 11.0 29.0 0.00 0.00 0.00 35 1009.0
20260508163029 56 302 12.0 29.0 0.00 0.00 0.00 36 1009.2
20260508162516 55 281 12.0 24.0 0.00 0.00 0.00 41 1009.0
20260508162018 54 318 14.0 23.0 0.00 0.00 0.00 38 1009.1
20260508161545 54 272 13.0 22.0 0.00 0.00 0.00 36 1009.1
20260508161011 55 288 10.0 27.0 0.00 0.00 0.00 38 1009.2
20260508160509 55 220 11.0 27.0 0.00 0.00 0.00 37 1009.2
20260508160030 56 277 14.0 27.0 0.00 0.00 0.00 37 1009.3
20260508155513 55 292 11.0 23.0 0.00 0.00 0.00 35 1009.2
20260508155012 55 360 9.0 19.0 0.00 0.00 0.00 41 1009.3
20260508154530 54 307 6.0 18.0 0.00 0.00 0.00 43 1009.3
20260508154014 53 339 11.0 24.0 0.00 0.00 0.00 38 1009.3
20260508153511 54 285 12.0 24.0 0.00 0.00 0.00 39 1009.4
20260508153050 54 289 9.0 22.0 0.00 0.00 0.00 41 1009.5
20260508152511 54 289 14.0 25.0 0.00 0.00 0.00 40 1009.5
20260508152012 54 265 11.0 25.0 0.00 0.00 0.00 42 1009.5
20260508151533 54 288 11.0 25.0 0.00 0.00 0.00 44 1009.5
20260508151016 54 298 13.0 22.0 0.00 0.00 0.00 46 1009.6
20260508150517 54 288 13.0 23.0 0.00 0.00 0.00 43 1009.6
20260508150031 53 279 11.0 28.0 0.00 0.00 0.00 45 1009.7
20260508145514 53 288 14.0 28.0 0.00 0.00 0.00 45 1009.6
20260508145012 53 276 12.0 23.0 0.00 0.00 0.00 44 1009.7
20260508144530 53 286 13.0 23.0 0.00 0.00 0.00 45 1009.7
20260508144012 53 257 13.0 25.0 0.00 0.00 0.00 44 1009.7
20260508143512 53 293 13.0 25.0 0.00 0.00 0.00 43 1009.6
20260508143049 53 293 12.0 27.0 0.00 0.00 0.00 43 1009.6
20260508142512 53 298 16.0 27.0 0.00 0.00 0.00 44 1009.7
20260508142011 53 296 11.0 23.0 0.00 0.00 0.00 46 1009.7
20260508141531 53 317 13.0 23.0 0.00 0.00 0.00 46 1009.7
20260508141011 53 313 9.0 22.0 0.00 0.00 0.00 45 1009.7
20260508140513 53 298 13.0 22.0 0.00 0.00 0.00 46 1009.7
20260508140032 53 295 12.0 23.0 0.00 0.00 0.00 48 1009.7
20260508135514 53 261 8.0 23.0 0.00 0.00 0.00 46 1009.7
20260508135011 53 225 9.0 23.0 0.00 0.00 0.00 49 1009.8
20260508134536 53 304 13.0 23.0 0.00 0.00 0.00 49 1009.9
20260508134013 52 325 7.0 23.0 0.00 0.00 0.00 51 1009.9
20260508133513 52 300 9.0 22.0 0.00 0.00 0.00 51 1009.9
20260508133030 52 280 10.0 18.0 0.00 0.00 0.00 48 1010.0
20260508132512 51 281 10.0 18.0 0.00 0.00 0.00 52 1010.1
20260508132013 51 267 8.0 18.0 0.00 0.00 0.00 54 1010.1
20260508131528 51 316 9.0 18.0 0.00 0.00 0.00 53 1010.1
20260508131011 51 317 7.0 15.0 0.00 0.00 0.00 52 1010.2
20260508130512 50 264 6.0 14.0 0.00 0.00 0.00 54 1010.1
20260508130030 50 294 9.0 16.0 0.00 0.00 0.00 54 1010.2
20260508125512 50 290 8.0 16.0 0.00 0.00 0.00 54 1010.1
20260508125014 50 303 8.0 16.0 0.00 0.00 0.00 54 1010.1
20260508124533 49 272 6.0 14.0 0.00 0.00 0.00 56 1010.1
20260508124014 49 285 8.0 16.0 0.00 0.00 0.00 56 1010.1
20260508123513 48 262 10.0 16.0 0.00 0.00 0.00 56 1010.2
20260508123031 48 290 9.0 15.0 0.00 0.00 0.00 56 1010.1
20260508122511 48 278 9.0 15.0 0.00 0.00 0.00 56 1010.1
20260508122013 47 231 6.0 14.0 0.00 0.00 0.00 58 1010.1
20260508121532 47 315 8.0 14.0 0.00 0.00 0.00 58 1010.1
20260508121012 47 298 5.0 14.0 0.00 0.00 0.00 59 1010.2
20260508120511 46 302 8.0 14.0 0.00 0.00 0.00 59 1010.1
20260508120031 46 285 6.0 12.0 0.00 0.00 0.00 60 1010.1
20260508115512 46 263 6.0 13.0 0.00 0.00 0.00 61 1010.1
20260508115012 45 287 8.0 14.0 0.00 0.00 0.00 64 1010.1
20260508114530 44 290 8.0 14.0 0.00 0.00 0.00 65 1010.1
20260508114013 44 293 6.0 12.0 0.00 0.00 0.00 65 1010.1
20260508113511 43 313 5.0 11.0 0.00 0.00 0.00 65 1010.0
20260508113034 42 277 6.0 11.0 0.00 0.00 0.00 66 1010.0
20260508112511 42 268 5.0 11.0 0.00 0.00 0.00 66 1010.0
20260508112012 41 254 4.0 9.0 0.00 0.00 0.00 68 1010.0
20260508111531 41 271 4.0 9.0 0.00 0.00 0.00 68 1010.0
20260508111011 40 290 3.0 8.0 0.00 0.00 0.00 70 1010.0
20260508110512 40 281 3.0 8.0 0.00 0.00 0.00 71 1009.9
20260508110034 40 296 3.0 8.0 0.00 0.00 0.00 70 1009.9
20260508105511 39 274 3.0 8.0 0.00 0.00 0.00 70 1009.8
20260508105013 39 293 3.0 8.0 0.00 0.00 0.00 69 1009.8
20260508104530 39 300 4.0 8.0 0.00 0.00 0.00 69 1009.8
20260508104012 39 306 3.0 11.0 0.00 0.00 0.00 68 1009.8
20260508103513 39 291 4.0 11.0 0.00 0.00 0.00 70 1009.8
20260508103039 38 302 5.0 11.0 0.00 0.00 0.00 70 1009.7
20260508102515 38 275 5.0 10.0 0.00 0.00 0.00 70 1009.6
20260508102011 38 271 5.0 10.0 0.00 0.00 0.00 71 1009.5
20260508101530 38 292 5.0 10.0 0.00 0.00 0.00 71 1009.6
20260508101012 38 360 6.0 10.0 0.00 0.00 0.00 71 1009.6
20260508100512 38 295 6.0 9.0 0.00 0.00 0.00 72 1009.4
20260508100037 38 298 5.0 10.0 0.00 0.00 0.00 72 1009.4
20260508095511 38 280 5.0 10.0 0.00 0.00 0.00 72 1009.3
20260508095011 38 286 6.0 11.0 0.00 0.00 0.00 73 1009.2
20260508094533 38 304 5.0 11.0 0.00 0.00 0.00 73 1009.2
20260508094013 38 288 6.0 11.0 0.00 0.00 0.00 73 1009.1
20260508093512 38 291 6.0 12.0 0.00 0.00 0.00 72 1009.1
20260508093036 38 308 6.0 12.0 0.00 0.00 0.00 72 1009.1
20260508092511 38 300 6.0 11.0 0.00 0.00 0.00 72 1009.0
20260508092011 38 290 6.0 10.0 0.00 0.00 0.00 72 1009.0
20260508091530 38 302 6.0 10.0 0.00 0.00 0.00 72 1009.0
20260508091014 38 281 3.0 10.0 0.00 0.00 0.00 72 1009.0
20260508090511 38 313 6.0 11.0 0.00 0.00 0.00 72 1008.9
20260508090036 38 297 5.0 11.0 0.00 0.00 0.00 72 1008.8
20260508085510 38 295 7.0 11.0 0.00 0.00 0.00 72 1008.7
20260508085011 38 306 6.0 11.0 0.00 0.00 0.00 72 1008.7
20260508084532 39 281 6.0 10.0 0.00 0.00 0.00 71 1008.7
20260508084013 39 286 5.0 11.0 0.00 0.00 0.00 71 1008.5
20260508083515 39 290 5.0 13.0 0.00 0.00 0.00 71 1008.4
20260508083029 38 313 7.0 13.0 0.00 0.00 0.00 72 1008.3
20260508082510 38 310 7.0 12.0 0.00 0.00 0.00 72 1008.3
20260508082012 38 319 5.0 10.0 0.00 0.00 0.00 73 1008.3
20260508081528 38 306 6.0 12.0 0.00 0.00 0.00 72 1008.5
20260508081011 39 309 6.0 12.0 0.00 0.00 0.00 72 1008.4
20260508080513 39 305 7.0 12.0 0.00 0.00 0.00 71 1008.4
20260508080028 39 290 6.0 11.0 0.00 0.00 0.00 71 1008.3
20260508075510 39 340 6.0 11.0 0.00 0.00 0.00 70 1008.3
20260508075010 39 303 6.0 11.0 0.00 0.00 0.00 68 1008.3
20260508074534 39 327 6.0 11.0 0.00 0.00 0.00 67 1008.3
20260508074013 40 298 6.0 10.0 0.00 0.00 0.00 66 1008.2
20260508073510 40 302 6.0 9.0 0.00 0.00 0.00 65 1008.2
20260508073030 40 309 5.0 9.0 0.00 0.00 0.00 64 1008.1
20260508072512 40 310 5.0 9.0 0.00 0.00 0.00 64 1008.1
20260508072017 40 310 5.0 10.0 0.00 0.00 0.00 64 1008.1
20260508071535 40 323 6.0 10.0 0.00 0.00 0.00 64 1008.2
20260508071011 40 325 6.0 10.0 0.00 0.00 0.00 63 1008.2
20260508070516 40 312 7.0 10.0 0.00 0.00 0.00 63 1008.2
20260508070031 40 306 7.0 10.0 0.00 0.00 0.00 63 1008.2
20260508065510 40 307 6.0 10.0 0.00 0.00 0.00 64 1008.2
20260508065017 40 325 7.0 10.0 0.00 0.00 0.00 63 1008.2
20260508064532 40 310 6.0 9.0 0.00 0.00 0.00 64 1008.2
20260508064015 40 313 6.0 9.0 0.00 0.00 0.00 64 1008.3
20260508063511 40 308 5.0 9.0 0.00 0.00 0.00 64 1008.4
20260508063031 40 314 4.0 8.0 0.00 0.00 0.00 64 1008.5
20260508062513 40 310 4.0 8.0 0.00 0.00 0.00 64 1008.6
20260508062013 40 305 4.0 8.0 0.00 0.00 0.00 64 1008.5
20260508061533 41 360 5.0 8.0 0.00 0.00 0.00 63 1008.5
20260508061013 41 360 4.0 8.0 0.00 0.00 0.00 63 1008.6
20260508060513 41 360 5.0 8.0 0.00 0.00 0.00 63 1008.7
20260508060041 41 360 4.0 8.0 0.00 0.00 0.00 63 1008.7
20260508055511 41 360 4.0 9.0 0.00 0.01 0.00 63 1008.8
20260508055011 41 360 4.0 9.0 0.00 0.01 0.00 63 1008.9
20260508054608 41 360 5.0 9.0 0.00 0.01 0.00 63 1008.9
20260508054012 41 360 4.0 9.0 0.00 0.01 0.00 63 1008.9
20260508053509 41 360 5.0 11.0 0.00 0.01 0.00 62 1008.9
20260508053043 42 360 5.0 11.0 0.00 0.01 0.00 62 1008.9
20260508052510 42 360 5.0 10.0 0.00 0.01 0.00 63 1008.9
20260508052012 42 360 5.0 10.0 0.00 0.01 0.00 64 1009.0
20260508051530 42 360 6.0 10.0 0.00 0.01 0.00 63 1009.0
20260508051013 42 360 5.0 10.0 0.00 0.01 0.00 61 1009.0
20260508050512 42 360 5.0 11.0 0.00 0.01 0.00 61 1009.0
20260508050028 42 360 5.0 11.0 0.00 0.01 0.00 62 1009.1
20260508045514 43 360 6.0 11.0 0.00 0.01 0.00 61 1009.2
20260508045012 43 360 4.0 9.0 0.00 0.01 0.00 62 1009.3
20260508044530 43 360 5.0 9.0 0.00 0.01 0.00 61 1009.3
20260508044013 43 360 4.0 11.0 0.00 0.01 0.00 61 1009.3
20260508043511 43 360 5.0 13.0 0.00 0.01 0.00 61 1009.2
20260508043036 43 360 5.0 13.0 0.00 0.01 0.00 60 1009.1
20260508042515 43 360 7.0 13.0 0.00 0.01 0.00 61 1009.1
20260508042009 43 360 7.0 13.0 0.00 0.01 0.00 61 1009.1
20260508041531 43 360 8.0 13.0 0.00 0.01 0.00 61 1009.1
20260508041011 44 360 8.0 12.0 0.00 0.01 0.00 60 1009.1
20260508040511 44 360 5.0 10.0 0.00 0.01 0.00 59 1009.2
20260508040033 44 360 6.0 10.0 0.00 0.01 0.00 59 1009.3
20260508035513 44 360 5.0 9.0 0.00 0.03 0.01 59 1009.4
20260508035013 44 360 4.0 9.0 0.00 0.03 0.01 58 1009.4
20260508034536 45 360 4.0 9.0 0.00 0.03 0.01 58 1009.4
20260508034016 45 360 5.0 9.0 0.00 0.03 0.01 57 1009.3
20260508033512 45 360 5.0 9.0 0.00 0.03 0.01 57 1009.3
20260508033033 45 360 5.0 9.0 0.00 0.03 0.01 56 1009.3
20260508032512 45 360 5.0 11.0 0.00 0.03 0.01 56 1009.4
20260508032011 46 360 5.0 11.0 0.00 0.03 0.01 55 1009.5
20260508031534 46 360 5.0 11.0 0.00 0.03 0.01 54 1009.4
20260508031011 46 360 5.0 10.0 0.00 0.03 0.01 54 1009.4
20260508030510 46 360 5.0 10.0 0.00 0.03 0.01 54 1009.3
20260508030032 46 360 5.0 12.0 0.00 0.03 0.01 53 1009.3
20260508025513 46 360 6.0 14.0 0.00 0.06 0.01 53 1009.2
20260508025009 46 360 7.0 14.0 0.00 0.06 0.01 53 1009.4
20260508024529 47 322 7.0 15.0 0.00 0.06 0.01 54 1009.3
20260508024013 47 306 8.0 15.0 0.00 0.06 0.01 53 1009.2
20260508023513 47 327 7.0 14.0 0.00 0.06 0.01 53 1009.2
20260508023031 47 360 8.0 14.0 0.00 0.06 0.01 51 1009.2
20260508022511 48 323 6.0 11.0 0.00 0.06 0.01 53 1009.2
20260508022011 48 360 6.0 13.0 0.00 0.06 0.01 51 1009.1
20260508021530 48 328 7.0 15.0 0.00 0.06 0.01 51 1009.1
20260508021017 48 360 5.0 15.0 0.00 0.06 0.01 51 1009.0
20260508020510 48 317 9.0 15.0 0.00 0.06 0.01 50 1008.9
20260508020032 48 321 8.0 14.0 0.00 0.06 0.01 51 1008.9
20260508015512 48 329 5.0 14.0 0.00 0.06 0.01 49 1008.8
20260508015012 49 317 7.0 14.0 0.00 0.06 0.01 50 1008.8
20260508014536 49 352 8.0 11.0 0.00 0.06 0.01 48 1008.8
20260508014011 49 352 5.0 12.0 0.00 0.06 0.01 50 1008.8
20260508013515 49 5 5.0 15.0 0.00 0.06 0.01 48 1008.8
20260508013031 49 347 7.0 15.0 0.00 0.06 0.01 48 1008.7
20260508012515 49 344 9.0 15.0 0.00 0.06 0.01 48 1008.6
20260508012012 49 5 7.0 12.0 0.00 0.06 0.01 49 1008.5
20260508011529 48 348 6.0 12.0 0.00 0.06 0.01 53 1008.5
20260508011011 48 333 5.0 12.0 0.00 0.06 0.01 51 1008.4
20260508010511 48 312 5.0 12.0 0.00 0.06 0.01 52 1008.2
20260508010044 48 294 5.0 11.0 0.00 0.06 0.01 52 1008.1
20260508005512 48 292 5.0 10.0 0.00 0.06 0.01 53 1008.1
20260508005012 49 301 3.0 6.0 0.00 0.06 0.01 51 1008.0
20260508004531 49 312 4.0 6.0 0.00 0.06 0.01 51 1007.9
20260508004013 49 299 3.0 5.0 0.00 0.06 0.01 50 1007.8
20260508003511 50 291 3.0 8.0 0.00 0.06 0.01 49 1007.6
20260508003029 50 298 3.0 8.0 0.00 0.06 0.01 49 1007.5
20260508002510 50 298 3.0 9.0 0.00 0.06 0.01 48 1007.4
20260508002011 50 285 4.0 9.0 0.00 0.06 0.01 48 1007.3
20260508001532 50 263 5.0 9.0 0.00 0.06 0.01 48 1007.3
20260508001010 50 263 4.0 12.0 0.00 0.06 0.01 48 1007.2
20260508000512 51 280 6.0 13.0 0.00 0.06 0.01 47 1007.2
20260508000029 51 268 6.0 13.0 0.00 0.06 0.01 47 1007.1
20260507235514 51 276 7.0 12.0 0.00 0.06 0.01 47 1007.1
20260507235011 52 273 7.0 15.0 0.00 0.06 0.01 47 1007.1
20260507234531 52 279 9.0 15.0 0.00 0.06 0.01 44 1007.1
20260507234012 53 224 8.0 14.0 0.00 0.06 0.01 43 1007.1
20260507233511 53 257 7.0 19.0 0.00 0.06 0.01 45 1007.2
20260507233030 53 239 9.0 20.0 0.00 0.06 0.01 43 1007.1
20260507232512 53 287 10.0 22.0 0.00 0.06 0.01 43 1007.1
20260507232011 54 296 9.0 22.0 0.00 0.06 0.01 43 1007.1
20260507231533 54 265 11.0 22.0 0.00 0.06 0.01 41 1007.0
20260507231010 54 274 10.0 25.0 0.00 0.06 0.01 40 1006.9
20260507230513 55 302 11.0 25.0 0.00 0.06 0.01 39 1006.9
20260507230038 55 281 13.0 24.0 0.00 0.06 0.01 39 1006.7
20260507225511 56 288 12.0 26.0 0.00 0.06 0.01 38 1006.9
20260507225015 56 298 12.0 26.0 0.00 0.06 0.01 38 1006.8
20260507224533 56 277 8.0 15.0 0.00 0.06 0.01 39 1006.7
20260507224011 55 245 6.0 15.0 0.00 0.06 0.01 39 1006.7
20260507223515 55 287 7.0 16.0 0.00 0.06 0.01 41 1006.7
20260507223031 56 267 9.0 17.0 0.00 0.06 0.01 39 1006.6
20260507222511 56 256 10.0 17.0 0.00 0.06 0.01 40 1006.6
20260507222012 56 236 10.0 20.0 0.00 0.06 0.01 39 1006.7
20260507221530 56 284 9.0 21.0 0.00 0.06 0.01 39 1006.6
20260507221012 56 277 9.0 21.0 0.00 0.06 0.01 39 1006.5
20260507220511 57 265 10.0 19.0 0.00 0.06 0.01 38 1006.6
20260507220035 57 257 13.0 25.0 0.00 0.06 0.01 37 1006.5
20260507215512 58 246 13.0 26.0 0.00 0.08 0.01 36 1006.5
20260507215013 58 274 14.0 26.0 0.00 0.08 0.01 38 1006.6
20260507214532 58 261 10.0 22.0 0.00 0.08 0.01 37 1006.5
20260507214011 58 303 8.0 24.0 0.00 0.08 0.01 38 1006.6
20260507213511 58 261 10.0 24.0 0.00 0.08 0.01 37 1006.5
20260507213030 58 281 13.0 24.0 0.00 0.08 0.01 38 1006.5
20260507212513 58 272 11.0 23.0 0.00 0.08 0.01 39 1006.6
20260507212012 58 302 14.0 23.0 0.00 0.08 0.01 36 1006.6
20260507211538 58 290 11.0 22.0 0.00 0.08 0.01 35 1006.5
20260507211011 58 315 13.0 22.0 0.00 0.08 0.01 39 1006.4
20260507210511 58 321 10.0 20.0 0.00 0.08 0.01 38 1006.5
20260507210033 58 263 7.0 20.0 0.00 0.08 0.01 40 1006.5
20260507205513 58 269 9.0 20.0 0.00 0.17 0.01 40 1006.5
20260507205012 58 286 10.0 25.0 0.00 0.17 0.01 39 1006.5
20260507204529 58 254 12.0 26.0 0.00 0.17 0.01 40 1006.3
20260507204012 58 260 13.0 28.0 0.00 0.17 0.01 38 1006.1
20260507203512 58 279 9.0 28.0 0.00 0.17 0.01 40 1006.3
20260507203036 58 281 15.0 23.0 0.00 0.17 0.01 37 1006.4
20260507202509 59 284 13.0 27.0 0.00 0.17 0.01 36 1006.4
20260507202009 59 221 13.0 29.0 0.00 0.17 0.01 36 1006.4
20260507201529 59 317 17.0 29.0 0.00 0.17 0.01 36 1006.3
20260507201013 59 275 14.0 28.0 0.00 0.17 0.01 38 1006.3
20260507200514 59 247 11.0 22.0 0.00 0.17 0.01 41 1006.4
20260507200031 59 284 8.0 26.0 0.00 0.17 0.01 39 1006.4
20260507195514 59 275 14.0 30.0 0.00 0.24 0.01 39 1006.5
20260507195012 59 275 11.0 30.0 0.00 0.24 0.01 38 1006.4
20260507194532 59 270 10.0 26.0 0.00 0.24 0.01 38 1006.5
20260507194012 60 330 14.0 27.0 0.00 0.24 0.01 38 1006.4
20260507193510 60 223 15.0 27.0 0.00 0.24 0.01 38 1006.4
20260507193034 60 263 12.0 24.0 0.00 0.24 0.01 37 1006.5
20260507192511 60 263 10.0 24.0 0.00 0.24 0.01 38 1006.2
20260507192011 60 288 14.0 23.0 0.00 0.24 0.01 39 1006.4
20260507191533 60 308 9.0 25.0 0.00 0.24 0.01 39 1006.5
20260507191011 60 339 15.0 25.0 0.00 0.24 0.01 38 1006.5
20260507190511 60 275 8.0 24.0 0.00 0.24 0.01 44 1006.6
20260507190028 60 309 10.0 24.0 0.00 0.24 0.01 41 1006.7
20260507185509 60 266 12.0 25.0 0.00 0.49 0.01 42 1006.7
20260507185013 60 290 11.0 27.0 0.00 0.49 0.01 42 1006.7
20260507184530 60 314 11.0 27.0 0.00 0.49 0.01 43 1006.6
20260507184010 60 298 11.0 23.0 0.00 0.49 0.01 42 1006.6
20260507183512 60 247 13.0 26.0 0.00 0.49 0.01 42 1006.7
20260507183041 60 284 11.0 26.0 0.00 0.49 0.01 43 1006.7
20260507182512 60 272 12.0 28.0 0.00 0.49 0.01 42 1006.6
20260507182014 59 281 12.0 28.0 0.00 0.49 0.01 40 1006.6
20260507181531 60 240 14.0 25.0 0.00 0.49 0.01 41 1006.6
20260507181012 60 229 11.0 25.0 0.00 0.49 0.01 42 1006.7
20260507180510 60 313 14.0 25.0 0.00 0.49 0.01 41 1006.7
20260507180034 60 271 8.0 25.0 0.00 0.49 0.01 44 1006.6
20260507175516 59 302 10.0 25.0 0.00 0.50 0.01 41 1006.7
20260507175012 60 275 11.0 24.0 0.00 0.50 0.01 45 1006.7
20260507174529 59 239 14.0 24.0 0.00 0.50 0.01 44 1006.7
20260507174011 58 269 13.0 24.0 0.00 0.50 0.01 46 1006.7
20260507173511 58 281 11.0 24.0 0.00 0.50 0.01 45 1006.9
20260507173029 58 280 13.0 24.0 0.00 0.50 0.01 49 1006.9
20260507172510 58 287 13.0 22.0 0.00 0.50 0.01 51 1006.8